Kezdőlap
METAR-TAF:

METAR-TAF

Repülőterek :

Kuantan, Malajzia

földrajzi szélesség: 03-37N, földrajzi hosszúság: 103-13E, magasság: 18 m

Jelenlegi meteorológiai megfigyelések

A jelentés 53 perccel ezelõtt készült, 18:00 UTC
Délkeleti szél 3 kt, keleti és délnyugati között változik
Hőmérséklet 24°C
Páratartalom 94%
Légköri nyomás 1009 hPa
Látótávolság 10 km, vagy több
Kevés felhő 2500 lábon

METAR: WMKD 221800Z 13003KT 100V220 9999 FEW025 24/23 Q1009 NOSIG

Idő: 02:53 (18:53 UTC)


TAF: hiányzik

Meteorológiai megfigyelések és előrejelzések több, mint 4000 repülőtéren (METAR és TAF jelentéseket).

A térképen piros és sárga pontok jelzik az elérhető meteorológiai állomásokat.

Mozgassa az egeret a pont fölött, hogy megjelenjen az állomás neve.

Azután kattintson az időjárási megfigyelések és előrejelzések megtekintéséhez.

A térkép megváltoztatása: kattintson a fekete keresztel jelölt zöld gombra ráközelítéshez, a vonallal jelölt zöld gombra távolításhoz, vagy a zöld nyilakra a szomszédos térképek eléréséhez.


METAR-TAF: